This is the latest recevied weather packets stored in our database for station/object OE6ATD-13. If no packets are shown the sender has not sent any weather packets the latest 10 day(s).
| Time | Temp. | Humidity | Pressure | Rain* | Wind** | Luminosity | Snow |
|---|---|---|---|---|---|---|---|
| 1777589126 | 4.44° C | 62% | 1027.8 hPa | 0 mm | - | 0 W/m² | - |
| 1777588520 | 4.44° C | 61% | 1027.9 hPa | 0 mm | - | 0 W/m² | - |
| 1777587916 | 5° C | 61% | 1027.8 hPa | 0 mm | - | 0 W/m² | - |
| 1777587327 | 5° C | 60% | 1027.8 hPa | 0 mm | - | 0 W/m² | - |
| 1777586723 | 5° C | 60% | 1027.9 hPa | 0 mm | - | 0 W/m² | - |
| 1777586118 | 5° C | 60% | 1027.9 hPa | 0 mm | - | 0 W/m² | - |
| 1777585529 | 5° C | 61% | 1027.9 hPa | 0 mm | - | 0 W/m² | - |
| 1777584926 | 5° C | 61% | 1028 hPa | 0 mm | - | 0 W/m² | - |
| 1777584321 | 5° C | 60% | 1027.9 hPa | 0 mm | - | 0 W/m² | - |
| 1777583716 | 5° C | 60% | 1027.8 hPa | 0 mm | - | 0 W/m² | - |
| 1777583128 | 5° C | 60% | 1027.8 hPa | 0 mm | - | 0 W/m² | - |
| 1777582524 | 5.56° C | 59% | 1027.7 hPa | 0 mm | - | 0 W/m² | - |
| 1777581919 | 5.56° C | 57% | 1027.7 hPa | 0 mm | - | 0 W/m² | - |
| 1777581330 | 5.56° C | 54% | 1027.8 hPa | 0 mm | - | 0 W/m² | - |
| 1777580726 | 5.56° C | 52% | 1027.7 hPa | 0 mm | - | 0 W/m² | - |
| 1777580122 | 6.11° C | 51% | 1027.6 hPa | 0 mm | - | 0 W/m² | - |
| 1777579518 | 6.67° C | 51% | 1027.5 hPa | 0 mm | - | 0 W/m² | - |
| 1777578929 | 6.67° C | 49% | 1027.4 hPa | 0 mm | - | 0 W/m² | - |
| 1777578324 | 7.22° C | 42% | 1027.4 hPa | 0 mm | - | 0 W/m² | - |
| 1777577720 | 7.78° C | 40% | 1027.3 hPa | 0 mm | - | 0 W/m² | - |
| 1777577116 | 7.78° C | 39% | 1027.2 hPa | 0 mm | - | 0 W/m² | - |
| 1777576527 | 8.33° C | 36% | 1027.2 hPa | 0 mm | - | 0 W/m² | - |
| 1777575922 | 9.44° C | 34% | 1027.2 hPa | 0 mm | - | 0 W/m² | - |
| 1777575318 | 10° C | 31% | 1027.1 hPa | 0 mm | - | 0 W/m² | - |
| 1777574729 | 10.56° C | 31% | 1026.9 hPa | 0 mm | - | 0 W/m² | - |
* Rain latest hour (hover to see other rain measurements)
** Current wind speed in m/s (hover to see current wind gust speed)